Tracking 19709 objects as of 18-Jun-2019
HD Live streaming from Space Station
objects crossing your sky now

SL-8 DEB

Track SL-8 DEB now!
10-day predictions


NORAD ID: 39693
Int'l Code: 1991-009DG
Perigee: 1,492.9 km
Apogee: 1,699.3 km
Inclination: 74.0 °
Period: 118.0 minutes
Semi major axis: 7967 km
RCS: 0.018 m2 (small)
Launch date: February 12, 1991
Source: Commonwealth of Independent States (former USSR) (CIS)
Launch site: PLESETSK MISSILE AND SPACE COMPLEX (PKMTR)

Note: This is SATELLITE DEBRIS
aabbcc
Your satellite tracking list
Your tracking list is empty




NASA's NSSDC Master Catalog

Two Line Element Set (TLE):
1 39693U 91009DG  19162.33122897  .00000016  00000-0  29392-3 0  9998
2 39693  74.0316 142.3511 0129499 315.6924 111.0936 12.20822180668315
Source of the keplerian elements: AFSPC